Simultaneous Nadir Overpasses (SNOs) Predictions

Prediction of SNOs between METOP-A and NOAA-19 Satellite Orbit:

Table of predicted SNOs for the next 14.0 days since TLE Epoch: 12/6/2013
Index Date (METOP-A) Time (METOP-A) Lat,Lon (METOP-A) SZA (METOP-A ) Date (NOAA-19) Time (NOAA-19) Lat,Lon (NOAA-19) SZA (NOAA-19 ) Distance(km) Time Diff (sec)
1 12/06/2013 21:04:33 -74.31, 38.99 83.18 12/06/2013 21:03:25 -74.30, 36.30 83.14 80.98 68
2 12/06/2013 21:55:24 73.75,-155.04 96.29 12/06/2013 21:54:13 73.76,-155.07 96.30 1.36 71
3 12/06/2013 22:46:06 -73.75, 12.28 83.72 12/06/2013 22:45:18 -73.76, 12.16 83.70 3.82 48
4 12/06/2013 23:36:46 73.73, 179.57 96.28 12/06/2013 23:36:16 73.71, 179.56 96.25 3.14 30
5 12/07/2013 00:27:29 -73.68, -13.22 83.78 12/07/2013 00:27:21 -73.71, -13.22 83.75 2.76 8
6 12/07/2013 01:18:09 73.66, 154.07 96.22 12/07/2013 01:18:20 73.70, 154.06 96.25 3.67 11
7 12/07/2013 02:08:51 -73.66, -38.61 83.79 12/07/2013 02:09:24 -73.65, -38.60 83.80 1.48 33
8 12/07/2013 02:59:31 73.65, 128.69 96.21 12/07/2013 03:00:23 73.64, 128.68 96.20 0.59 52
9 12/07/2013 03:50:14 -73.59, -64.11 83.84 12/07/2013 03:51:27 -73.59, -63.98 83.85 4.19 73
10 12/17/2013 00:20:21 -74.25, -10.13 82.46 12/17/2013 00:19:12 -74.25, -12.43 82.39 69.54 69
11 12/17/2013 01:11:10 73.79, 156.08 97.11 12/17/2013 01:10:03 73.76, 156.08 97.08 3.24 67
12 12/17/2013 02:01:53 -73.73, -36.72 82.95 12/17/2013 02:01:06 -73.76, -36.70 82.91 3.14 47
13 12/17/2013 02:52:33 73.72, 130.57 97.04 12/17/2013 02:52:07 73.75, 130.58 97.08 3.67 26
14 12/17/2013 03:43:15 -73.71, -62.11 82.96 12/17/2013 03:43:09 -73.71, -62.08 82.97 1.18 6
15 12/17/2013 04:33:55 73.70, 105.19 97.03 12/17/2013 04:34:10 73.69, 105.20 97.02 0.54 15
16 12/17/2013 05:24:37 -73.69, -87.49 82.98 12/17/2013 05:25:13 -73.70, -87.58 82.97 2.85 36
17 12/17/2013 06:15:17 73.68, 79.80 97.01 12/17/2013 06:16:14 73.69, 79.70 97.02 3.28 57
18 12/17/2013 07:06:01 -73.58,-113.11 83.09 12/17/2013 07:07:15 -73.60,-112.85 83.08 8.55 74




NCC Satellite Simultaneous Nadir Overpasses (SNOs) Prediction Service
